IQ0OG-3 Weather Reports


time (UTC)temp
F
wind
direction
speed
knots
gust
knots
rain 1hr
in
rain 24hr
in
rain mn
in
humidity
%
barometer
mb
20260505212004 62 201 1.7 5.2 0.01 0.02 0.02 75 1012.7
20260505210005 62 216 2.6 5.2 0.01 0.02 0.02 75 1012.8
20260505205004 62 190 1.7 6.1 0.01 0.02 0.02 80 1012.9
20260505204005 63 196 3.5 7.0 0.01 0.02 0.02 80 1012.6
20260505203004 63 103 1.7 9.6 0.01 0.02 0.02 84 1012.8
20260505202004 64 116 5.2 9.6 0.00 0.01 0.01 83 1012.7
20260505201004 65 167 1.7 3.5 0.00 0.01 0.01 82 1012.7
20260505195005 62 187 1.7 1.7 0.00 0.01 0.01 92 1012.3
20260505194005 62 0 0.0 1.7 0.00 0.01 0.01 92 1012.2
20260505193007 63 288 0.9 1.7 0.00 0.01 0.01 91 1012.2
20260505192004 63 315 0.9 1.7 0.00 0.01 0.01 91 1012.1
20260505191004 63 0 0.0 1.7 0.00 0.01 0.01 88 1012.0
20260505185004 62 223 0.9 1.7 0.00 0.01 0.01 91 1012.1
20260505184005 63 278 0.9 1.7 0.00 0.01 0.01 89 1011.9
20260505183004 64 0 0.0 1.7 0.00 0.01 0.01 88 1011.6
20260505182004 64 0 0.0 3.5 0.00 0.01 0.01 87 1011.8
20260505181004 63 230 1.7 3.5 0.00 0.01 0.01 89 1011.8
20260505180004 64 0 0.0 0.0 0.00 0.01 0.01 93 1012.0
20260505175005 64 0 0.0 1.7 0.00 0.01 0.01 92 1011.8
20260505174004 64 0 0.0 0.0 0.00 0.01 0.01 92 1011.9
20260505173005 65 0 0.0 1.7 0.00 0.01 0.01 91 1011.7
20260505172004 65 0 0.0 1.7 0.00 0.01 0.01 90 1011.9
20260505170004 65 0 0.0 1.7 0.00 0.01 0.01 89 1012.0
20260505165004 66 7 1.7 3.5 0.00 0.01 0.01 88 1011.8
20260505163004 67 0 0.0 1.7 0.00 0.01 0.01 85 1011.5
20260505162004 67 0 0.0 1.7 0.00 0.01 0.01 86 1011.9
20260505161004 66 0 0.0 1.7 0.00 0.01 0.01 89 1011.8
20260505152004 66 68 1.7 1.7 0.00 0.01 0.01 88 1012.1
20260505151003 66 0 0.0 1.7 0.00 0.01 0.01 89 1011.8
20260505125004 66 19 1.7 3.5 0.00 0.01 0.01 81 1012.5
20260505124003 66 14 2.6 3.5 0.00 0.01 0.01 82 1012.5
20260505123004 66 20 0.9 1.7 0.00 0.01 0.01 82 1012.5
20260505122003 65 0 0.0 3.5 0.00 0.01 0.01 80 1012.7
20260505121004 66 341 1.7 3.5 0.00 0.01 0.01 82 1012.8
20260505120005 65 357 1.7 5.2 0.00 0.01 0.01 78 1012.8
20260505115004 65 137 0.9 11.3 0.00 0.01 0.01 80 1013.1
20260505114004 64 46 2.6 3.5 0.00 0.01 0.01 87 1013.1
20260505113003 64 5 1.7 5.2 0.00 0.01 0.01 89 1013.0
20260505101003 63 354 1.7 3.5 0.01 0.01 0.01 92 1013.8
20260505100004 64 19 0.9 3.5 0.01 0.01 0.01 91 1013.7
20260505094004 64 0 0.0 1.7 0.00 0.00 0.00 88 1013.7
20260505093003 64 0 0.0 3.5 0.00 0.00 0.00 86 1013.7
20260505092003 65 103 1.7 3.5 0.00 0.00 0.00 84 1013.6
20260505091003 66 45 1.7 3.5 0.00 0.00 0.00 82 1013.5
20260505085003 66 19 0.9 3.5 0.00 0.00 0.00 79 1013.6
20260505084003 66 57 1.7 3.5 0.00 0.00 0.00 81 1013.5
20260505083003 66 55 1.7 3.5 0.00 0.00 0.00 81 1013.6
20260505082003 67 105 1.7 3.5 0.00 0.00 0.00 78 1013.6
20260505081003 67 0 0.0 1.7 0.00 0.00 0.00 74 1013.5
20260505080003 65 0 0.0 1.7 0.00 0.00 0.00 77 1013.5
20260505075003 64 53 0.9 1.7 0.00 0.00 0.00 80 1013.6
20260505074003 62 0 0.0 3.5 0.00 0.00 0.00 82 1013.7
20260505073004 63 0 0.0 1.7 0.00 0.00 0.00 81 1013.7
20260505071003 63 0 0.0 1.7 0.00 0.00 0.00 82 1013.4
20260505070004 63 0 0.0 1.7 0.00 0.00 0.00 80 1013.8
20260505065003 63 248 0.9 3.5 0.00 0.00 0.00 78 1013.6
20260505064003 62 260 1.7 3.5 0.00 0.00 0.00 82 1013.9
20260505063003 61 101 1.7 3.5 0.00 0.00 0.00 82 1013.7
20260505062003 61 0 0.0 3.5 0.00 0.00 0.00 84 1013.7
20260505061004 60 350 0.9 1.7 0.00 0.00 0.00 84 1013.7
20260505060004 61 306 1.7 3.5 0.00 0.00 0.00 81 1013.6
20260505055003 62 261 1.7 3.5 0.00 0.00 0.00 80 1013.8
20260505054005 61 252 1.7 3.5 0.00 0.00 0.00 80 1013.6
20260505053004 62 237 1.7 3.5 0.00 0.00 0.00 78 1013.4
20260505052003 63 145 1.7 3.5 0.00 0.00 0.00 73 1013.5
20260505051002 63 90 1.7 9.6 0.00 0.00 0.00 75 1013.5
20260505041003 60 331 1.7 1.7 0.00 0.00 0.00 86 1013.3
20260505040004 61 0 0.0 1.7 0.00 0.00 0.00 83 1013.3
20260505034002 60 211 0.9 1.7 0.00 0.00 0.00 86 1013.2
20260504230959 58 0 0.0 1.7 0.00 0.02 0.00 96 1014.5
20260504230002 58 0 0.0 1.7 0.00 0.02 0.00 96 1014.7
20260504225000 58 0 0.0 1.7 0.00 0.02 0.00 96 1014.7
20260504224000 58 0 0.0 1.7 0.00 0.02 0.00 96 1014.7
20260504223001 58 0 0.0 1.7 0.00 0.02 0.00 96 1014.7
20260504221001 58 0 0.0 0.0 0.00 0.02 0.00 96 1014.9
20260504214002 58 0 0.0 1.7 0.00 0.02 0.02 96 1015.0